Shreveport, LA

12:21 AM CDT on August 31, 2016 (GMT -0500)
Shreveport Downtown

Weather History for KDTN - December, 2013

Change the Weather History Date:

Thursday, December 19, 2013

  Actual Average (KSHV) Record (KSHV)
Temperature  
Mean Temperature 58 °F 47 °F  
Max Temperature 69 °F 58 °F 80 °F (1977)
Min Temperature 46 °F 37 °F 15 °F (1929)
Degree Days  
Heating Degree Days 8 18  
Month to date heating degree days 309  
Since 1 July heating degree days 680  
Cooling Degree Days 0 0  
Month to date cooling degree days 0  
Year to date cooling degree days 2474  
Growing Degree Days 8 (Base 50)    
Moisture  
Dew Point 51 °F    
Average Humidity 76    
Maximum Humidity 93    
Minimum Humidity 63    
Precipitation  
Precipitation 0.00 in 0.15 in 2.33 in (1872)
Month to date precipitation 3.03  
Year to date precipitation 49.67  
Snow  
Snow 0.00 in - - ()
Month to date snowfall  
Since 1 July snowfall  
Snow Depth -    
Sea Level Pressure  
Sea Level Pressure 29.98 in    
Wind  
Wind Speed 11 mph (SSE)    
Max Wind Speed 21 mph    
Max Gust Speed 30 mph    
Visibility 9 miles    
Events      
T = Trace of Precipitation, MM = Missing Value Source: NWS Daily Summary

Daily Weather History Graph

Daily Weather History Graph

Search for Another Location

Airport or City:

Trip Planner

Search our weather history database for the weather conditions in past years. The results will help you decide how hot, cold, wet, or windy it might be!

Date:

Astronomy

Dec. 19, 2013 Rise Set
Actual Time 7:11 AM CST 5:12 PM CST
Civil Twilight 6:44 AM CST 5:39 PM CST
Nautical Twilight 6:13 AM CST 6:10 PM CST
Astronomical Twilight 5:43 AM CST 6:40 PM CST
Moon 7:32 PM CST (12/19) 8:37 AM CST (12/19)
Length of Visible Light 10h 55m
Length of Day
10h 00m
Waning Gibbous, 95% of the Moon is Illuminated
Dec 19
Waning Gibbous
Dec 25
Last Quarter
Jan 1
New
Jan 7
First Quarter
Jan 15
Full

Hourly Weather History & Observations

Time (CST) Temp. Windchill Dew Point Humidity Pressure Visibility Wind Dir Wind Speed Gust Speed Precip Events Conditions
12:53 AM 48.9 °F - 37.9 °F 66% 30.11 in 10.0 mi South 5.8 mph - N/A   Clear
1:53 AM 46.9 °F - 39.9 °F 77% 30.10 in 10.0 mi SSE 8.1 mph - N/A   Clear
2:53 AM 46.9 °F - 41.0 °F 80% 30.09 in 10.0 mi SSE 8.1 mph - N/A   Scattered Clouds
3:53 AM 46.9 °F - 42.1 °F 83% 30.09 in 10.0 mi SSE 9.2 mph - N/A   Clear
4:53 AM 48.0 °F - 44.1 °F 86% 30.08 in 10.0 mi SSE 10.4 mph - N/A   Clear
5:53 AM 46.9 °F - 43.0 °F 86% 30.07 in 10.0 mi SSE 11.5 mph - N/A   Clear
6:53 AM 46.0 °F 41.0 °F 43.0 °F 89% 30.07 in 6.0 mi SSE 10.4 mph - N/A   Clear
7:53 AM 46.0 °F 41.4 °F 44.1 °F 93% 30.06 in 4.0 mi SE 9.2 mph - N/A   Partly Cloudy
8:53 AM 48.9 °F - 46.0 °F 90% 30.05 in 5.0 mi SSE 10.4 mph - N/A   Partly Cloudy
9:53 AM 54.0 °F - 48.0 °F 80% 30.06 in 9.0 mi South 10.4 mph - N/A   Overcast
10:53 AM 62.1 °F - 51.1 °F 67% 30.04 in 10.0 mi SSE 11.5 mph 19.6 mph N/A   Clear
11:53 AM 64.9 °F - 53.1 °F 65% 30.01 in 10.0 mi South 11.5 mph - N/A   Overcast
12:53 PM 68.0 °F - 55.0 °F 63% 29.96 in 10.0 mi South 12.7 mph 23.0 mph N/A   Overcast
1:53 PM 69.1 °F - 55.9 °F 63% 29.92 in 10.0 mi South 16.1 mph 29.9 mph N/A   Partly Cloudy
2:53 PM 69.1 °F - 55.9 °F 63% 29.91 in 10.0 mi South 20.7 mph 29.9 mph N/A   Mostly Cloudy
3:53 PM 68.0 °F - 55.9 °F 65% 29.90 in 10.0 mi South 15.0 mph 20.7 mph N/A   Scattered Clouds
4:53 PM 68.0 °F - 57.0 °F 68% 29.90 in 10.0 mi South 13.8 mph - N/A   Mostly Cloudy
5:53 PM 66.9 °F - 55.9 °F 68% 29.89 in 10.0 mi South 17.3 mph 24.2 mph N/A   Clear
6:53 PM 66.9 °F - 57.0 °F 70% 29.89 in 10.0 mi South 13.8 mph 21.9 mph N/A   Mostly Cloudy
7:53 PM 66.0 °F - 57.9 °F 75% 29.90 in 10.0 mi South 16.1 mph - N/A   Overcast
8:04 PM 66.2 °F - 57.2 °F 73% 29.90 in 10.0 mi South 16.1 mph - N/A   Overcast
8:53 PM 64.9 °F - 57.9 °F 78% 29.90 in 10.0 mi South 13.8 mph - N/A   Overcast
9:53 PM 64.9 °F - 57.9 °F 78% 29.90 in 10.0 mi South 12.7 mph - N/A   Overcast
10:53 PM 66.0 °F - 60.1 °F 81% 29.90 in 10.0 mi South 17.3 mph 23.0 mph N/A   Overcast
11:15 PM 66.2 °F - 60.8 °F 83% 29.90 in 10.0 mi South 17.3 mph 26.5 mph 0.00 in   Overcast
11:53 PM 64.9 °F - 60.1 °F 84% 29.88 in 10.0 mi South 12.7 mph 19.6 mph 0.00 in   Overcast